TimeAKDT,TemperatureF,Dew PointF,Humidity,Sea Level PressureIn,VisibilityMPH,Wind Direction,Wind SpeedMPH,Gust SpeedMPH,PrecipitationIn,Events,Conditions,WindDirDegrees,DateUTC
12:53 AM,26.1,21.9,84,29.90,10.0,NNW,4.6,-,N/A,,Partly Cloudy,330,2013-10-04 08:53:00
1:53 AM,26.1,21.9,84,29.91,10.0,WNW,3.5,-,N/A,,Partly Cloudy,290,2013-10-04 09:53:00
2:53 AM,21.9,19.9,92,29.92,10.0,Calm,Calm,-,N/A,,Clear,0,2013-10-04 10:53:00
3:53 AM,24.1,19.9,84,29.92,10.0,Variable,3.5,-,N/A,,Scattered Clouds,0,2013-10-04 11:53:00
4:53 AM,21.9,19.0,89,29.92,10.0,Calm,Calm,-,N/A,,Scattered Clouds,0,2013-10-04 12:53:00
5:53 AM,19.9,17.1,89,29.92,10.0,Calm,Calm,-,N/A,,Scattered Clouds,0,2013-10-04 13:53:00
6:53 AM,19.9,17.1,89,29.92,10.0,Calm,Calm,-,N/A,,Scattered Clouds,0,2013-10-04 14:53:00
7:53 AM,19.0,16.0,88,29.94,10.0,Calm,Calm,-,N/A,,Scattered Clouds,0,2013-10-04 15:53:00
8:53 AM,19.0,16.0,88,29.94,10.0,Calm,Calm,-,N/A,,Scattered Clouds,0,2013-10-04 16:53:00
9:53 AM,21.9,19.0,89,29.94,10.0,Calm,Calm,-,N/A,,Partly Cloudy,0,2013-10-04 17:53:00
10:53 AM,25.0,21.0,85,29.94,10.0,Calm,Calm,-,N/A,,Partly Cloudy,0,2013-10-04 18:53:00
11:53 AM,30.0,26.1,85,29.92,10.0,Calm,Calm,-,N/A,,Partly Cloudy,0,2013-10-04 19:53:00
12:53 PM,34.0,26.1,73,29.93,10.0,Calm,Calm,-,N/A,,Partly Cloudy,0,2013-10-04 20:53:00
1:53 PM,34.0,26.1,73,29.94,10.0,SSW,3.5,-,N/A,,Partly Cloudy,210,2013-10-04 21:53:00
2:53 PM,35.1,27.0,72,29.92,10.0,Calm,Calm,-,N/A,,Clear,0,2013-10-04 22:53:00
3:53 PM,35.1,28.0,76,29.91,10.0,South,6.9,-,N/A,,Scattered Clouds,180,2013-10-04 23:53:00
4:53 PM,36.0,28.9,76,29.88,10.0,SE,9.2,-,N/A,,Scattered Clouds,140,2013-10-05 00:53:00
5:53 PM,36.0,28.9,76,29.86,10.0,SE,10.4,-,N/A,,Mostly Cloudy,130,2013-10-05 01:53:00
6:22 PM,35.6,28.4,75,29.85,10.0,SE,10.4,-,N/A,,Scattered Clouds,140,2013-10-05 02:22:00
6:53 PM,35.1,28.9,78,29.85,10.0,SE,8.1,-,N/A,,Scattered Clouds,140,2013-10-05 02:53:00
7:51 PM,35.6,30.2,81,29.81,10.0,East,5.8,-,N/A,,Mostly Cloudy,90,2013-10-05 03:51:00
7:53 PM,35.1,28.9,78,29.82,10.0,East,5.8,-,N/A,,Mostly Cloudy,90,2013-10-05 03:53:00
8:53 PM,33.1,28.9,85,29.80,8.0,East,8.1,-,N/A,,Overcast,100,2013-10-05 04:53:00
9:53 PM,32.0,30.0,92,29.77,10.0,East,8.1,-,0.00,,Overcast,80,2013-10-05 05:53:00
10:53 PM,34.0,28.0,79,29.75,10.0,SSE,10.4,-,0.00,,Overcast,150,2013-10-05 06:53:00
11:53 PM,33.1,28.9,85,29.73,10.0,East,8.1,-,N/A,,Overcast,100,2013-10-05 07:53:00